Location: Unspecified
(0.0000°N, 0.0000°E)
Time: 18:24:47
(UTC+00:00)

Vanguard 2 Rocket - Pass Details

Date: 26 January 2020
Orbit: 554 x 3327 km, 32.9° (Epoch: 20 February)

Event Time Altitude Azimuth Distance (km) Brightness Sun altitude
Rises 22:44:14 0° 225° (SW) 5,575 11.3 -61.4°
Reaches altitude 10° 22:48:57 10° 218° (SW) 4,073 10.5 -62.3°
Enters shadow 22:50:33 14° 214° (SW) 3,558 10.1 -62.6°
Maximum altitude 22:57:50 37° 154° (SSE) 1,711 - -63.8°
Drops below altitude 10° 23:03:14 10° 87° (E) 2,468 - -64.7°
Sets 23:05:24 0° 78° (ENE) 3,186 - -65.1°
